CW8392 Weather Reports


Display with metric or nautical units.
time (UTC)temp
F
wind
direction
speed
MPH
gust
MPH
rain 1hr
in
rain 24hr
in
rain mn
in
humidity
%
barometer
mb
20180222185648 35 45 0.0 0.0 0.00 0.00 0.00 74 1023.4
20180222185159 35 57 0.0 0.0 0.00 0.00 0.00 75 1023.4
20180222184657 35 15 0.0 0.0 0.00 0.00 0.00 75 1023.4
20180222184206 35 32 0.0 0.0 0.00 0.00 0.00 76 1023.4
20180222183711 35 53 0.0 0.0 0.00 0.00 0.00 76 1023.4
20180222183212 35 30 0.0 0.0 0.00 0.00 0.00 76 1023.4
20180222182707 35 44 0.0 0.0 0.00 0.00 0.00 75 1023.3
20180222182225 35 32 0.0 0.0 0.00 0.00 0.00 75 1023.3
20180222181727 35 34 0.0 0.0 0.00 0.00 0.00 74 1023.2
20180222181212 35 30 0.0 0.0 0.00 0.00 0.00 74 1023.2
20180222180725 36 38 0.0 0.0 0.00 0.00 0.00 73 1023.2
20180222180224 36 55 0.0 0.0 0.00 0.00 0.00 72 1023.2
20180222175736 36 46 0.0 0.0 0.00 0.00 0.00 72 1023.3
20180222175233 36 51 0.0 0.0 0.00 0.00 0.00 71 1023.3
20180222174745 36 45 0.0 0.0 0.00 0.00 0.00 71 1023.2
20180222174251 37 40 0.0 0.0 0.00 0.00 0.00 70 1023.2
20180222173730 37 46 0.0 0.0 0.00 0.00 0.00 70 1023.2
20180222173248 37 42 0.0 0.0 0.00 0.00 0.00 70 1023.2
20180222172744 37 49 0.0 0.0 0.00 0.00 0.00 69 1023.2
20180222172146 37 46 0.0 0.0 0.00 0.00 0.00 66 1023.2
20180222171648 38 34 0.0 0.0 0.00 0.00 0.00 63 1023.1
20180222171143 38 61 0.0 0.0 0.00 0.00 0.00 61 1023.2
20180222170650 38 63 0.0 0.0 0.00 0.00 0.00 61 1023.1
20180222170158 38 55 0.0 0.0 0.00 0.00 0.00 61 1023.1
20180222165657 38 31 0.0 0.0 0.00 0.00 0.00 61 1023.1
20180222165205 39 19 0.0 0.0 0.00 0.00 0.00 60 1023.1
20180222164701 39 42 0.0 0.0 0.00 0.00 0.00 60 1023.1
20180222164209 39 48 0.0 0.0 0.00 0.00 0.00 60 1023.1
20180222163703 39 46 0.0 0.0 0.00 0.00 0.00 59 1023.1
20180222163221 39 17 0.0 0.0 0.00 0.00 0.00 59 1023.0
20180222162717 39 32 0.0 0.0 0.00 0.00 0.00 58 1023.0
20180222162230 39 54 0.0 0.0 0.00 0.00 0.00 59 1023.1
20180222161731 40 70 0.0 0.0 0.00 0.00 0.00 59 1023.0
20180222161225 40 42 0.0 0.0 0.00 0.00 0.00 58 1023.1
20180222160741 40 66 0.0 0.0 0.00 0.00 0.00 58 1023.1
20180222160244 40 20 0.0 0.0 0.00 0.00 0.00 59 1023.1
20180222155805 40 36 0.0 0.0 0.00 0.00 0.00 59 1023.0
20180222155240 40 59 0.0 0.0 0.00 0.00 0.00 58 1023.0
20180222154734 40 37 0.0 0.0 0.00 0.00 0.00 57 1023.0
20180222154247 40 24 0.0 0.0 0.00 0.00 0.00 57 1023.1
20180222153750 40 27 0.0 0.0 0.00 0.00 0.00 58 1023.0
20180222153230 40 44 0.0 0.0 0.00 0.00 0.00 58 1023.0
20180222152807 40 54 0.0 0.0 0.00 0.00 0.00 57 1023.0
20180222152148 41 11 0.0 0.0 0.00 0.00 0.00 58 1023.0
20180222151654 41 52 0.0 0.0 0.00 0.00 0.00 58 1023.0
20180222151157 41 355 0.0 0.0 0.00 0.00 0.00 58 1023.0
20180222150156 41 41 0.0 0.0 0.00 0.00 0.00 58 1023.1
20180222145709 41 39 0.0 0.0 0.00 0.00 0.00 57 1023.1
20180222145206 41 5 0.0 0.0 0.00 0.00 0.00 56 1023.1
20180222144202 41 53 0.0 0.0 0.00 0.00 0.00 56 1023.2
20180222143725 41 39 0.0 0.0 0.00 0.00 0.00 57 1023.2
20180222143204 41 342 0.0 0.0 0.00 0.00 0.00 56 1023.2
20180222142728 41 51 0.0 0.0 0.00 0.00 0.00 57 1023.2
20180222142232 41 27 0.0 0.0 0.00 0.00 0.00 57 1023.2
20180222141716 41 43 0.0 0.0 0.00 0.00 0.00 55 1023.2
20180222141232 41 87 0.0 0.0 0.00 0.00 0.00 55 1023.3
20180222140723 41 52 0.0 0.0 0.00 0.00 0.00 55 1023.3
20180222135811 41 93 0.0 0.0 0.00 0.00 0.00 57 1023.4
20180222135248 40 48 0.0 0.0 0.00 0.00 0.00 57 1023.5
20180222134749 40 87 0.0 0.0 0.00 0.00 0.00 56 1023.6
20180222134300 40 40 0.0 0.0 0.00 0.00 0.00 58 1023.6
20180222133742 40 36 0.0 0.0 0.00 0.00 0.00 57 1023.6
20180222133302 40 57 0.0 0.0 0.00 0.00 0.00 58 1023.8
20180222132747 40 58 0.0 0.0 0.00 0.00 0.00 58 1023.8
20180222132140 40 48 0.0 0.0 0.00 0.00 0.00 59 1023.8
20180222131654 40 44 0.0 0.0 0.00 0.00 0.00 59 1024.0
20180222131145 40 75 0.0 0.0 0.00 0.00 0.00 61 1024.1
20180222130653 40 17 0.0 0.0 0.00 0.00 0.00 61 1024.1
20180222130203 40 41 0.0 0.0 0.00 0.00 0.00 61 1024.2
20180222125733 39 69 0.0 0.0 0.00 0.00 0.00 61 1024.3
20180222125241 39 46 0.0 0.0 0.00 0.00 0.00 61 1024.3
20180222124703 39 57 0.0 0.0 0.00 0.00 0.00 60 1024.4
20180222124216 39 92 0.0 0.0 0.00 0.00 0.00 60 1024.4
20180222123707 39 98 0.0 0.0 0.00 0.00 0.00 60 1024.4
20180222123217 39 55 0.0 0.0 0.00 0.00 0.00 60 1024.6
20180222122236 39 50 0.0 0.0 0.00 0.00 0.00 62 1024.6
20180222121725 39 69 0.0 0.0 0.00 0.00 0.00 64 1024.6
20180222120725 39 86 0.0 0.0 0.00 0.00 0.00 66 1024.7
20180222120239 39 50 0.0 0.0 0.00 0.00 0.00 65 1024.7
20180222115803 38 63 0.0 0.0 0.00 0.00 0.00 65 1024.7
20180222115236 38 53 0.0 0.0 0.00 0.00 0.00 66 1024.8
20180222114753 38 78 0.0 0.0 0.00 0.00 0.00 66 1024.9
20180222114254 38 53 0.0 0.0 0.00 0.00 0.00 66 1025.0
20180222113746 38 96 0.0 0.0 0.00 0.00 0.00 66 1025.0
20180222113252 38 66 0.0 0.0 0.00 0.00 0.00 66 1025.0
20180222112751 38 40 0.0 0.0 0.00 0.00 0.00 66 1025.1
20180222111700 37 66 0.0 0.0 0.00 0.00 0.00 66 1025.1
20180222111156 37 84 0.0 0.0 0.00 0.00 0.00 67 1025.1
20180222110651 37 67 0.0 0.0 0.00 0.00 0.00 67 1025.2
20180222110209 37 103 0.0 0.0 0.00 0.00 0.00 66 1025.1
20180222105156 37 44 0.0 0.0 0.00 0.00 0.00 67 1025.1
20180222104709 37 69 0.0 0.0 0.00 0.00 0.00 68 1025.1
20180222104222 36 41 0.0 0.0 0.00 0.00 0.00 68 1025.1
20180222103714 36 39 0.0 0.0 0.00 0.00 0.00 68 1025.1
20180222103230 36 70 0.0 0.0 0.00 0.00 0.00 69 1025.1
20180222102725 36 49 0.0 0.0 0.00 0.00 0.00 69 1025.1
20180222102234 36 87 0.0 0.0 0.00 0.00 0.00 70 1025.1
20180222101737 36 32 0.0 0.0 0.00 0.00 0.00 70 1025.1
20180222101243 36 63 0.0 0.0 0.00 0.00 0.00 71 1025.1
20180222100725 36 69 0.0 0.0 0.00 0.00 0.00 71 1025.1
20180222100231 35 66 0.0 0.0 0.00 0.00 0.00 73 1025.1
20180222095240 35 63 0.0 0.0 0.00 0.00 0.00 73 1025.2
20180222094741 35 57 0.0 0.0 0.00 0.00 0.00 73 1025.1
20180222094258 34 80 0.0 0.0 0.00 0.00 0.00 74 1025.1
20180222093754 34 55 0.0 0.0 0.00 0.00 0.00 74 1025.2
20180222093248 34 40 0.0 0.0 0.00 0.00 0.00 74 1025.2
20180222092650 34 49 0.0 0.0 0.00 0.00 0.00 74 1025.2
20180222092142 34 39 0.0 0.0 0.00 0.00 0.00 74 1025.2
20180222091649 34 55 0.0 0.0 0.00 0.00 0.00 76 1025.2
20180222091155 34 46 0.0 0.0 0.00 0.00 0.00 76 1025.2
20180222090648 34 42 0.0 0.0 0.00 0.00 0.00 76 1025.2
20180222090208 33 71 0.0 0.0 0.00 0.00 0.00 76 1025.2
20180222085722 33 45 0.0 0.0 0.00 0.00 0.00 77 1025.2
20180222085233 33 72 0.0 0.0 0.00 0.00 0.00 77 1025.2
20180222084701 33 55 0.0 0.0 0.00 0.00 0.00 78 1025.3
20180222084157 33 75 0.0 0.0 0.00 0.00 0.00 78 1025.3
20180222083727 32 55 0.0 0.0 0.00 0.00 0.00 79 1025.3
20180222083221 32 58 0.0 0.0 0.00 0.00 0.00 79 1025.4
20180222082733 32 30 0.0 0.0 0.00 0.00 0.00 80 1025.3
20180222082222 32 80 0.0 0.0 0.00 0.00 0.00 80 1025.3
20180222081732 32 61 0.0 0.0 0.00 0.00 0.00 80 1025.4
20180222081224 31 81 0.0 0.0 0.00 0.00 0.00 80 1025.3
20180222080744 31 88 0.0 0.0 0.00 0.00 0.00 80 1025.3
20180222080247 31 80 0.0 0.0 0.00 0.00 0.00 81 1025.3
20180222075807 31 80 0.0 0.0 0.00 0.00 0.00 81 1025.2
20180222074752 31 55 0.0 0.0 0.00 0.00 0.00 82 1025.1
20180222074258 30 55 0.0 0.0 0.00 0.00 0.00 82 1025.0
20180222073743 30 57 0.0 0.0 0.00 0.00 0.00 82 1025.0
20180222073303 30 56 0.0 0.0 0.00 0.00 0.00 82 1025.0
20180222072641 30 83 0.0 0.0 0.00 0.00 0.00 83 1024.9
20180222072148 30 42 0.0 0.0 0.00 0.00 0.00 83 1025.0
20180222071701 30 34 0.0 0.0 0.00 0.00 0.00 83 1025.0
20180222071159 29 73 0.0 0.0 0.00 0.00 0.00 83 1024.9
20180222070643 29 42 0.0 0.0 0.00 0.00 0.00 83 1024.8
20180222070200 29 83 0.0 0.0 0.00 0.00 0.00 83 1024.9
20180222065725 29 85 0.0 0.0 0.00 0.00 0.00 83 1024.9
20180222065159 29 43 0.0 0.0 0.00 0.00 0.00 83 1024.8
20180222064711 29 61 0.0 0.0 0.00 0.00 0.00 83 1024.8
20180222064206 29 60 0.0 0.0 0.00 0.00 0.00 83 1024.7
20180222063716 29 86 0.0 0.0 0.00 0.00 0.00 83 1024.7
20180222063210 29 55 0.0 0.0 0.00 0.00 0.00 83 1024.6
20180222062720 29 74 0.0 0.0 0.00 0.00 0.00 83 1024.7
20180222062231 29 74 0.0 0.0 0.00 0.00 0.00 82 1024.6
20180222061738 29 53 0.0 0.0 0.00 0.00 0.00 82 1024.6
20180222061244 29 73 0.0 0.0 0.00 0.00 0.00 82 1024.6
20180222060742 29 59 0.0 0.0 0.00 0.00 0.00 82 1024.6
20180222060239 29 42 0.0 0.0 0.00 0.00 0.00 82 1024.5
20180222055811 29 43 0.0 0.0 0.00 0.00 0.00 82 1024.6
20180222055247 29 45 0.0 0.0 0.00 0.00 0.00 82 1024.6
20180222054750 29 76 0.0 0.0 0.00 0.00 0.00 82 1024.5
20180222054257 29 53 0.0 0.0 0.00 0.00 0.00 82 1024.5
20180222053757 29 33 0.0 0.0 0.00 0.00 0.00 82 1024.5
20180222053250 29 45 0.0 0.0 0.00 0.00 0.00 82 1024.5
20180222052646 29 43 0.0 0.0 0.00 0.00 0.00 82 1024.4
20180222052154 29 50 0.0 0.0 0.00 0.00 0.00 82 1024.4
20180222051659 29 43 0.0 0.0 0.00 0.00 0.00 82 1024.5
20180222051155 29 49 0.0 0.0 0.00 0.00 0.00 82 1024.5
20180222050651 29 57 0.0 0.0 0.00 0.00 0.00 82 1024.5
20180222050155 29 41 0.0 0.0 0.00 0.00 0.00 81 1024.5
20180222045739 29 37 0.0 0.0 0.00 0.00 0.00 81 1024.4
20180222045217 29 36 0.0 0.0 0.00 0.00 0.00 81 1024.5
20180222044712 29 56 0.0 0.0 0.00 0.00 0.00 81 1024.5
20180222044212 29 42 0.0 0.0 0.00 0.00 0.00 81 1024.4
20180222043724 29 55 0.0 0.0 0.00 0.00 0.00 81 1024.4
20180222043224 29 47 0.0 0.0 0.00 0.00 0.00 81 1024.4
20180222042712 29 60 0.0 0.0 0.00 0.00 0.00 81 1024.4
20180222042236 29 33 0.0 0.0 0.00 0.00 0.00 81 1024.3
20180222041742 29 65 0.0 0.0 0.00 0.00 0.00 81 1024.3
20180222041228 29 44 0.0 0.0 0.00 0.00 0.00 81 1024.3
20180222040732 29 54 0.0 0.0 0.00 0.00 0.00 81 1024.3
20180222040248 29 56 0.0 0.0 0.00 0.00 0.00 81 1024.2
20180222035754 30 63 0.0 0.0 0.00 0.00 0.00 81 1024.3
20180222035253 30 37 0.0 0.0 0.00 0.00 0.00 81 1024.1
20180222034742 30 62 0.0 0.0 0.00 0.00 0.00 81 1024.1
20180222034253 30 32 0.0 0.0 0.00 0.00 0.00 82 1024.2
20180222033751 30 60 0.0 0.0 0.00 0.00 0.00 82 1024.1
20180222033254 30 52 0.0 0.0 0.00 0.00 0.00 82 1024.2
20180222032642 30 53 0.0 0.0 0.00 0.00 0.00 82 1024.2
20180222032144 30 53 0.0 0.0 0.00 0.00 0.00 82 1024.3
20180222031657 30 32 0.0 0.0 0.00 0.00 0.00 82 1024.2
20180222031156 30 32 0.0 0.0 0.00 0.00 0.00 82 1024.4
20180222030651 30 34 0.0 0.0 0.00 0.00 0.00 82 1024.2
20180222030202 30 58 0.0 0.0 0.00 0.00 0.00 82 1024.3
20180222025727 30 36 0.0 0.0 0.00 0.00 0.00 82 1024.3
20180222025153 30 24 0.0 0.0 0.00 0.00 0.00 82 1024.3
20180222024708 30 32 0.0 0.0 0.00 0.00 0.00 82 1024.3
20180222024208 30 35 0.0 0.0 0.00 0.00 0.00 81 1024.3
20180222023715 30 49 0.0 0.0 0.00 0.00 0.00 82 1024.4
20180222023218 30 42 0.0 0.0 0.00 0.00 0.00 82 1024.4
20180222022723 30 35 0.0 0.0 0.00 0.00 0.00 82 1024.5
20180222022217 30 17 0.0 0.0 0.00 0.00 0.00 82 1024.5
20180222021740 30 60 0.0 0.0 0.00 0.00 0.00 82 1024.5
20180222021226 30 28 0.0 0.0 0.00 0.00 0.00 82 1024.5
20180222020734 30 36 0.0 0.0 0.00 0.00 0.00 82 1024.6
20180222020248 30 51 0.0 0.0 0.00 0.00 0.00 82 1024.6
20180222015753 30 43 0.0 0.0 0.00 0.00 0.00 82 1024.6
20180222015242 30 45 0.0 0.0 0.00 0.00 0.00 82 1024.7
20180222014801 30 40 0.0 0.0 0.00 0.00 0.00 82 1024.7
20180222014251 30 40 0.0 0.0 0.00 0.00 0.00 82 1024.7
20180222013802 30 44 0.0 0.0 0.00 0.00 0.00 82 1024.7
20180222013144 30 49 0.0 0.0 0.00 0.00 0.00 82 1024.8
20180222012640 31 61 0.0 0.0 0.00 0.00 0.00 82 1024.8
20180222012149 31 51 0.0 0.0 0.00 0.00 0.00 82 1024.8
20180222011646 31 50 0.0 0.0 0.00 0.00 0.00 82 1024.9
20180222011148 31 45 0.0 0.0 0.00 0.00 0.00 82 1024.9
20180222010653 31 36 0.0 0.0 0.00 0.00 0.00 82 1024.8
20180222010150 31 46 0.0 0.0 0.00 0.00 0.00 82 1024.8
20180222005727 31 23 0.0 0.0 0.00 0.00 0.00 82 1024.8
20180222005201 31 43 0.0 0.0 0.00 0.00 0.00 82 1024.8
20180222004700 31 65 0.0 0.0 0.00 0.00 0.00 82 1024.8
20180222004208 31 44 0.0 0.0 0.00 0.00 0.00 82 1024.9
20180222003709 31 49 0.0 0.0 0.00 0.00 0.00 82 1024.9
20180222003232 31 52 0.0 0.0 0.00 0.00 0.00 82 1025.0
20180222002710 31 40 0.0 0.0 0.00 0.00 0.00 82 1025.0
20180222002216 31 44 0.0 0.0 0.00 0.00 0.00 82 1025.0
20180222001729 31 41 0.0 0.0 0.00 0.00 0.00 82 1025.1
20180222001236 31 53 0.0 0.0 0.00 0.00 0.00 82 1025.1
20180222000735 31 46 0.0 0.0 0.00 0.00 0.00 82 1025.1
20180222000239 31 40 0.0 0.0 0.00 0.00 0.00 82 1025.2
20180221235801 31 55 0.0 0.0 0.00 0.00 0.00 82 1025.2
20180221235247 31 45 0.0 0.0 0.00 0.00 0.00 82 1025.1
20180221234755 31 40 0.0 0.0 0.00 0.00 0.00 82 1025.2
20180221234237 31 48 0.0 0.0 0.00 0.00 0.00 81 1025.2
20180221233750 31 42 0.0 0.0 0.00 0.00 0.00 81 1025.2
20180221233137 32 42 0.0 0.0 0.00 0.00 0.00 81 1025.3
20180221232154 32 70 0.0 0.0 0.00 0.00 0.00 81 1025.2
20180221231703 32 44 0.0 0.0 0.00 0.00 0.00 81 1025.2
20180221231152 32 39 0.0 0.0 0.00 0.00 0.00 81 1025.2
20180221230714 32 49 0.0 0.0 0.00 0.00 0.00 81 1025.3
20180221230203 32 49 0.0 0.0 0.00 0.00 0.00 81 1025.2
20180221225725 32 51 0.0 0.0 0.00 0.00 0.00 81 1025.2
20180221225221 32 53 0.0 0.0 0.00 0.00 0.00 81 1025.2
20180221224706 32 47 0.0 0.0 0.00 0.00 0.00 81 1025.3
20180221224225 32 43 0.0 0.0 0.00 0.00 0.00 81 1025.3
20180221223728 32 34 0.0 0.0 0.00 0.00 0.00 81 1025.3
20180221223226 32 42 0.0 0.0 0.00 0.00 0.00 81 1025.3
20180221222729 32 43 0.0 0.0 0.00 0.00 0.00 81 1025.2
20180221222226 32 19 0.0 0.0 0.00 0.00 0.00 81 1025.2
20180221221743 32 42 0.0 0.0 0.00 0.00 0.00 81 1025.3
20180221221245 32 59 0.0 0.0 0.00 0.00 0.00 82 1025.3
20180221220746 32 32 0.0 0.0 0.00 0.00 0.00 82 1025.3
20180221215827 32 42 0.0 0.0 0.00 0.00 0.00 82 1025.4
20180221215242 32 42 0.0 0.0 0.00 0.00 0.00 82 1025.4
20180221214800 32 34 0.0 0.0 0.00 0.00 0.00 83 1025.5
20180221214250 32 24 0.0 0.0 0.00 0.00 0.00 83 1025.5
20180221213747 33 58 0.0 0.0 0.00 0.00 0.00 83 1025.5
20180221213139 33 43 0.0 0.0 0.00 0.00 0.00 83 1025.5
20180221212656 33 36 0.0 0.0 0.00 0.00 0.00 83 1025.4
20180221212152 33 45 0.0 0.0 0.00 0.00 0.00 83 1025.4
20180221211648 33 49 0.0 0.0 0.00 0.00 0.00 83 1025.4
20180221211158 33 40 0.0 0.0 0.00 0.00 0.00 83 1025.4
20180221210653 33 55 0.0 0.0 0.00 0.00 0.00 83 1025.4
20180221210202 33 44 0.0 0.0 0.00 0.00 0.00 83 1025.4
20180221205732 33 38 0.0 0.0 0.00 0.00 0.00 83 1025.4
20180221205205 33 44 0.0 0.0 0.00 0.00 0.00 83 1025.4
20180221204709 33 40 0.0 0.0 0.00 0.00 0.00 83 1025.4
20180221204211 33 36 0.0 0.0 0.00 0.00 0.00 83 1025.4
20180221203233 33 38 0.0 0.0 0.00 0.00 0.00 83 1025.4
20180221202727 33 40 0.0 0.0 0.00 0.00 0.00 83 1025.4
20180221202228 33 46 0.0 0.0 0.00 0.00 0.00 83 1025.4
20180221201729 34 44 0.0 0.0 0.00 0.00 0.00 83 1025.4
20180221201232 34 28 0.0 0.0 0.00 0.00 0.00 83 1025.4
20180221200734 34 47 0.0 0.0 0.00 0.00 0.00 83 1025.4
20180221200244 34 36 0.0 0.0 0.00 0.00 0.00 83 1025.4
20180221195750 34 60 0.0 0.0 0.00 0.00 0.00 83 1025.4
20180221195238 34 40 0.0 0.0 0.00 0.00 0.00 83 1025.3
20180221194745 34 38 0.0 0.0 0.00 0.00 0.00 83 1025.3
20180221194300 34 42 0.0 0.0 0.00 0.00 0.00 83 1025.3
20180221193752 34 349 0.0 0.0 0.00 0.00 0.00 82 1025.2
20180221193154 34 11 0.0 0.0 0.00 0.00 0.00 82 1025.3
20180221192648 34 40 0.0 0.0 0.00 0.00 0.00 82 1025.2
20180221192157 34 19 0.0 0.0 0.00 0.00 0.00 82 1025.2
20180221191648 34 5 0.0 0.0 0.00 0.00 0.00 82 1025.1
20180221190652 34 36 0.0 0.0 0.00 0.00 0.00 81 1025.1
20180221190208 34 19 0.0 0.0 0.00 0.00 0.00 81 1025.1
20180221185737 34 35 0.0 0.0 0.00 0.00 0.00 81 1025.1